When you browse on this site, cookies collect data to enhance your experience and personalize the content and advertising you see.
Visit our Privacy Policy to learn more. By continuing to use the site, you agree to this use of cookies and data.
  • în România
  • Lista ţărilor
  • Pe 7 zile
  • Temperatura apei
  • Hartă satelitară
  • Meteo pe hartă
  • Widget-uri
  • user-avatar
    Intrare

    Meteo pe oră la Longjumeau

    Astăzi, 17 Iunie, Luni

    Timp Temperatura Precipitaţii Vânt Presiune Umiditate
    00:00 +15°C° 0 mm 0 m/s 759 mmHg 80%
    01:00 +16°C° 0 mm 1 m/s 758 mmHg 81%
    02:00 +15°C° 0 mm 1 m/s 758 mmHg 82%
    03:00 +15°C° 0 mm 1 m/s 758 mmHg 83%
    04:00 +16°C° 0 mm 1 m/s 758 mmHg 81%
    05:00 +16°C° 0 mm 1 m/s 758 mmHg 80%
    06:00 +16°C° 0 mm 0 m/s 758 mmHg 78%
    07:00 +20°C° 0 mm 1 m/s 758 mmHg 72%
    08:00 +21°C° 0 mm 1 m/s 758 mmHg 65%
    09:00 +23°C° 0 mm 1 m/s 758 mmHg 59%
    10:00 +24°C° 0 mm 1 m/s 758 mmHg 55%
    11:00 +25°C° 0 mm 1 m/s 758 mmHg 51%
    12:00 +26°C° 0 mm 1 m/s 757 mmHg 47%
    13:00 +27°C° 0 mm 2 m/s 757 mmHg 47%
    14:00 +27°C° 0 mm 2 m/s 756 mmHg 47%
    15:00 +27°C° 0 mm 2 m/s 756 mmHg 47%
    16:00 +26°C° 0 mm 2 m/s 756 mmHg 52%
    17:00 +26°C° 0 mm 1 m/s 756 mmHg 56%
    18:00 +25°C° 0 mm 1 m/s 756 mmHg 61%
    19:00 +24°C° 0 mm 1 m/s 756 mmHg 65%
    20:00 +22°C° 0 mm 1 m/s 756 mmHg 69%
    21:00 +21°C° 0 mm 1 m/s 756 mmHg 73%
    22:00 +18°C° 0 mm 0 m/s 756 mmHg 75%
    23:00 +18°C° 0 mm 0 m/s 756 mmHg 77%

    Mâine, 18 Iunie, Marţi

    Timp Temperatura Precipitaţii Vânt Presiune Umiditate
    00:00 +17°C° 0 mm 0 m/s 756 mmHg 79%
    01:00 +19°C° 0 mm 1 m/s 755 mmHg 80%
    02:00 +19°C° 0 mm 1 m/s 755 mmHg 81%
    03:00 +18°C° 0 mm 1 m/s 754 mmHg 82%
    04:00 +19°C° 0 mm 1 m/s 754 mmHg 81%
    05:00 +19°C° 0 mm 1 m/s 754 mmHg 79%
    06:00 +20°C° 0 mm 1 m/s 754 mmHg 78%
    07:00 +20°C° 0 mm 2 m/s 754 mmHg 74%
    08:00 +23°C° 0 mm 2 m/s 754 mmHg 69%
    09:00 +24°C° 0 mm 2 m/s 754 mmHg 65%
    10:00 +25°C° 0 mm 2 m/s 753 mmHg 60%
    11:00 +27°C° 0 mm 2 m/s 753 mmHg 56%
    12:00 +28°C° 0 mm 2 m/s 753 mmHg 51%
    13:00 +28°C° 0 mm 3 m/s 752 mmHg 51%
    14:00 +28°C° 0 mm 3 m/s 752 mmHg 51%
    15:00 +28°C° 0 mm 3 m/s 751 mmHg 50%
    16:00 +28°C° 0 mm 3 m/s 751 mmHg 55%
    17:00 +27°C° 0 mm 3 m/s 751 mmHg 60%
    18:00 +27°C° 0 mm 3 m/s 750 mmHg 65%
    19:00 +25°C° 0.1 mm 3 m/s 750 mmHg 69%
    20:00 +24°C° 0.1 mm 3 m/s 750 mmHg 72%
    21:00 +22°C° 0.1 mm 3 m/s 750 mmHg 76%
    22:00 +21°C° 0.3 mm 3 m/s 750 mmHg 76%
    23:00 +21°C° 0.3 mm 4 m/s 749 mmHg 76%

    Poimâine, 19 Iunie, Miercuri

    Timp Temperatura Precipitaţii Vânt Presiune Umiditate
    00:00 +21°C° 0.3 mm 4 m/s 749 mmHg 75%
    01:00 +20°C° 0.3 mm 4 m/s 749 mmHg 78%
    02:00 +20°C° 0.3 mm 5 m/s 749 mmHg 81%
    03:00 +19°C° 0.3 mm 5 m/s 749 mmHg 84%
    04:00 +19°C° 0 mm 5 m/s 749 mmHg 82%
    05:00 +19°C° 0 mm 4 m/s 749 mmHg 80%
    06:00 +19°C° 0 mm 4 m/s 749 mmHg 77%
    07:00 +20°C° 0 mm 5 m/s 749 mmHg 73%
    08:00 +21°C° 0 mm 5 m/s 750 mmHg 69%
    09:00 +22°C° 0 mm 6 m/s 750 mmHg 65%
    10:00 +23°C° 0 mm 6 m/s 750 mmHg 63%
    11:00 +23°C° 0 mm 7 m/s 751 mmHg 61%
    12:00 +24°C° 0 mm 7 m/s 751 mmHg 59%
    13:00 +24°C° 0.1 mm 7 m/s 751 mmHg 60%
    14:00 +23°C° 0.1 mm 6 m/s 751 mmHg 61%
    15:00 +23°C° 0.1 mm 6 m/s 751 mmHg 62%
    16:00 +22°C° 0.1 mm 5 m/s 751 mmHg 64%
    17:00 +22°C° 0.1 mm 4 m/s 752 mmHg 67%
    18:00 +21°C° 0.1 mm 3 m/s 752 mmHg 69%
    19:00 +20°C° 0 mm 2 m/s 752 mmHg 71%
    20:00 +19°C° 0 mm 2 m/s 753 mmHg 74%
    21:00 +18°C° 0 mm 2 m/s 753 mmHg 77%
    22:00 +18°C° 0 mm 2 m/s 753 mmHg 77%
    23:00 +19°C° 0 mm 1 m/s 753 mmHg 78%

    20 Iunie, Joi

    Timp Temperatura Precipitaţii Vânt Presiune Umiditate
    00:00 +18°C° 0 mm 1 m/s 753 mmHg 78%
    01:00 +18°C° 0 mm 1 m/s 753 mmHg 78%
    02:00 +18°C° 0 mm 1 m/s 753 mmHg 78%
    03:00 +16°C° 0 mm 1 m/s 753 mmHg 79%
    04:00 +16°C° 0.4 mm 1 m/s 754 mmHg 80%
    05:00 +16°C° 0.4 mm 1 m/s 754 mmHg 82%
    06:00 +16°C° 0.4 mm 1 m/s 754 mmHg 83%
    07:00 +16°C° 0.6 mm 1 m/s 754 mmHg 83%
    08:00 +16°C° 0.6 mm 1 m/s 754 mmHg 82%
    09:00 +16°C° 0.6 mm 2 m/s 755 mmHg 82%
    10:00 +17°C° 0 mm 2 m/s 755 mmHg 76%
    11:00 +18°C° 0 mm 2 m/s 755 mmHg 70%
    12:00 +19°C° 0 mm 2 m/s 755 mmHg 64%
    13:00 +20°C° 0 mm 2 m/s 755 mmHg 61%
    14:00 +21°C° 0 mm 2 m/s 754 mmHg 58%
    15:00 +23°C° 0 mm 2 m/s 754 mmHg 56%
    16:00 +21°C° 0 mm 2 m/s 754 mmHg 58%
    17:00 +21°C° 0 mm 2 m/s 754 mmHg 60%
    18:00 +21°C° 0 mm 2 m/s 755 mmHg 62%
    19:00 +20°C° 0 mm 2 m/s 755 mmHg 66%
    20:00 +19°C° 0 mm 2 m/s 755 mmHg 69%
    21:00 +18°C° 0 mm 2 m/s 755 mmHg 73%
    22:00 +17°C° 0 mm 2 m/s 755 mmHg 74%
    23:00 +16°C° 0 mm 2 m/s 755 mmHg 75%

    21 Iunie, Vineri

    Timp Temperatura Precipitaţii Vânt Presiune Umiditate
    00:00 +16°C° 0 mm 2 m/s 755 mmHg 76%
    01:00 +15°C° 0 mm 2 m/s 756 mmHg 73%
    02:00 +15°C° 0 mm 2 m/s 756 mmHg 69%
    03:00 +15°C° 0 mm 2 m/s 756 mmHg 66%
    04:00 +15°C° 0 mm 2 m/s 756 mmHg 65%
    05:00 +15°C° 0 mm 2 m/s 756 mmHg 64%
    06:00 +15°C° 0 mm 2 m/s 757 mmHg 63%
    07:00 +17°C° 0 mm 2 m/s 757 mmHg 58%
    08:00 +18°C° 0 mm 2 m/s 757 mmHg 53%
    09:00 +19°C° 0 mm 2 m/s 757 mmHg 48%
    10:00 +20°C° 0 mm 2 m/s 757 mmHg 46%
    11:00 +22°C° 0 mm 1 m/s 757 mmHg 43%
    12:00 +24°C° 0 mm 1 m/s 757 mmHg 41%
    13:00 +24°C° 0 mm 2 m/s 757 mmHg 42%
    14:00 +24°C° 0 mm 2 m/s 757 mmHg 42%
    15:00 +24°C° 0 mm 2 m/s 757 mmHg 43%
    16:00 +23°C° 0 mm 2 m/s 757 mmHg 48%
    17:00 +21°C° 0 mm 3 m/s 757 mmHg 52%
    18:00 +20°C° 0 mm 3 m/s 757 mmHg 57%
    19:00 +19°C° 0 mm 3 m/s 757 mmHg 60%
    20:00 +18°C° 0 mm 3 m/s 758 mmHg 63%
    21:00 +17°C° 0 mm 3 m/s 758 mmHg 66%
    22:00 +16°C° 0 mm 2 m/s 758 mmHg 69%
    23:00 +16°C° 0 mm 2 m/s 758 mmHg 72%

    22 Iunie, Sâmbătă

    Timp Temperatura Precipitaţii Vânt Presiune Umiditate
    00:00 +15°C° 0 mm 2 m/s 758 mmHg 75%
    01:00 +14°C° 0 mm 2 m/s 757 mmHg 75%
    02:00 +14°C° 0 mm 2 m/s 757 mmHg 76%
    03:00 +13°C° 0 mm 2 m/s 757 mmHg 76%
    04:00 +14°C° 0 mm 2 m/s 757 mmHg 73%
    05:00 +14°C° 0 mm 2 m/s 757 mmHg 69%
    06:00 +15°C° 0 mm 2 m/s 757 mmHg 66%
    07:00 +17°C° 0 mm 3 m/s 757 mmHg 62%
    08:00 +18°C° 0 mm 3 m/s 757 mmHg 57%
    09:00 +20°C° 0 mm 3 m/s 757 mmHg 52%
    10:00 +21°C° 0 mm 3 m/s 757 mmHg 50%
    11:00 +22°C° 0 mm 3 m/s 756 mmHg 48%
    12:00 +24°C° 0 mm 3 m/s 756 mmHg 46%
    13:00 +24°C° 0 mm 3 m/s 756 mmHg 47%
    14:00 +24°C° 0 mm 3 m/s 756 mmHg 48%
    15:00 +25°C° 0 mm 3 m/s 755 mmHg 50%
    16:00 +24°C° 0 mm 3 m/s 755 mmHg 53%
    17:00 +24°C° 0 mm 3 m/s 755 mmHg 57%
    18:00 +22°C° 0 mm 3 m/s 755 mmHg 61%
    19:00 +21°C° 0 mm 3 m/s 756 mmHg 64%
    20:00 +20°C° 0 mm 2 m/s 756 mmHg 67%
    21:00 +19°C° 0 mm 2 m/s 756 mmHg 70%
    22:00 +18°C° 0 mm 2 m/s 756 mmHg 71%
    23:00 +18°C° 0 mm 2 m/s 756 mmHg 73%
    Arată mai mult